Flag for Germany Weather past 2 weeks in Schwabach, Bavaria, Germany

Now
59 °F

Light rain. Partly sunny.


Feels Like: 59 °F
Forecast: 43 / 60 °F
Wind: 1 mph from North

Location: Nuernberg

Current Time: Oct 20, 2014 at 12:33:07 PM

Latest Report: Oct 20, 2014 at 12:20 PM


Visibility: N/A

Pressure: 30.09 "Hg

Humidity: 94%

Dew point: 57 °F

Location of SchwabachLocation

Historic Weather in Schwabach — Graph

°F

Schwabach temperature yesterday

Maximum temperature yesterday: 72 °F (at 2:50 PM)
Minimum temperature yesterday: 46 °F (at 4:50 AM)
Average temperature yesterday: 57 °F

Past Weeks' High & Low Weather Summary

 TemperatureHumidityPressure
High77 °F (Oct 9, 2:20 PM)100% (Oct 6, 3:20 AM)30.24 "Hg (Oct 6, 3:20 AM)
Low41 °F (Oct 6, 6:50 AM)44% (Oct 9, 3:20 PM)29.77 "Hg (Oct 13, 10:20 PM)
Average58 °F89%29.93 "Hg
* Reported Oct 5 11:20 AM — Oct 20 11:20 AM, Schwabach, Weather by CustomWeather, © 2014

Note: Actual official high and low records may vary slightly from our data, if they occured in-between our weather recording intervals... More about our weather records

Advertising

Schwabach weather history for previous 24 hours

 ConditionsComfort  
Time TempWeatherWind HumidityBarometerVisibility
11:20 AM
Oct 20
57 °FLight rain. Partly sunny.2 mph100%30.09 "HgN/A
10:50 AM59 °FDrizzle. Partly sunny.2 mph94%30.09 "HgN/A
10:20 AM57 °FRain. Partly sunny.5 mph100%30.09 "HgN/A
9:50 AM59 °FLight rain. Partly sunny.3 mph94%30.09 "HgN/A
9:20 AM61 °FLight rain. Broken clouds.5 mph88%30.09 "HgN/A
8:50 AM61 °FLight rain. Broken clouds.3 mph88%30.09 "HgN/A
8:20 AM61 °FPassing clouds.7 mph88%30.09 "HgN/A
7:50 AM61 °FPassing clouds.7 mph88%30.07 "HgN/A
7:20 AM61 °FPassing clouds.7 mph83%30.07 "HgN/A
6:50 AM61 °FPassing clouds.6 mph88%30.07 "HgN/A
5:20 AM61 °FFog.6 mph88%30.07 "HgN/A
4:50 AM61 °FFog.2 mph83%30.07 "HgN/A
4:20 AM61 °FFog.2 mph88%30.09 "HgN/A
3:50 AM59 °FFog.2 mph88%30.09 "HgN/A
3:20 AM57 °FFog.2 mph88%30.09 "HgN/A
2:50 AM57 °FFog.3 mph88%30.09 "HgN/A
2:20 AM59 °FFog.1 mph82%30.09 "HgN/A
1:50 AM57 °FFog.1 mph88%30.09 "HgN/A
1:20 AM57 °FFog.1 mph94%30.09 "HgN/A
12:50 AM54 °FFog.1 mph94%30.09 "HgN/A
12:20 AM55 °FFog.2 mph100%30.09 "HgN/A
11:50 PM
Oct 19
55 °FFog.2 mph100%30.09 "HgN/A
11:20 PM55 °FFog.3 mph94%30.09 "HgN/A
10:50 PM59 °FFog.2 mph94%30.09 "HgN/A
10:20 PM59 °FFog.5 mph94%30.09 "HgN/A
9:50 PM59 °FClear.5 mph94%30.09 "Hg10 mi
9:20 PM59 °FClear.3 mph94%30.09 "Hg10 mi
8:50 PM59 °FClear.2 mph94%30.09 "Hg10 mi
8:20 PM59 °FClear.5 mph94%30.09 "Hg10 mi
7:50 PM63 °FClear.5 mph88%30.09 "Hg10 mi
7:20 PM63 °FClear.3 mph88%30.09 "Hg10 mi
6:50 PM64 °FSunny.2 mph83%30.09 "Hg10 mi
6:20 PM66 °FPassing clouds.5 mph78%30.09 "HgN/A
5:50 PM68 °FPassing clouds.6 mph73%30.09 "HgN/A
5:20 PM68 °FPassing clouds.7 mph78%30.09 "HgN/A
4:50 PM70 °FPassing clouds.6 mph69%30.09 "HgN/A
4:20 PM72 °FSunny.8 mph65%30.09 "Hg10 mi
3:50 PM72 °FPassing clouds.7 mph65%30.09 "HgN/A
3:20 PM72 °FPassing clouds.7 mph61%30.09 "HgN/A
2:50 PM72 °FPassing clouds.7 mph61%30.09 "HgN/A
2:20 PM70 °FPassing clouds.8 mph60%30.12 "HgN/A
1:50 PM70 °FPassing clouds.6 mph64%30.12 "HgN/A
1:20 PM68 °FPassing clouds.6 mph69%30.12 "HgN/A
12:50 PM64 °FPassing clouds.6 mph73%30.15 "HgN/A
12:20 PM63 °FPassing clouds.6 mph77%30.15 "HgN/A
Weather by CustomWeather, © 2014

See weather overviewHow to use our weather pages